This is the latest recevied weather packets stored in our database for station/object OK1VCF-8. If no packets are shown the sender has not sent any weather packets the latest 1 day(s).
| Time | Temp. | Humidity | Pressure | Rain* | Wind** | Luminosity | Snow |
|---|---|---|---|---|---|---|---|
| 1777963987 | 20° C | 64% | 1009.5 hPa | - | 0 m/s | - | - |
| 1777963528 | 18.89° C | 66% | 1009.6 hPa | - | 0 m/s | - | - |
| 1777963071 | 18.89° C | 68% | 1009.8 hPa | - | 0 m/s | - | - |
| 1777962613 | 18.89° C | 66% | 1009.6 hPa | - | 0 m/s | - | - |
| 1777962152 | 18.89° C | 67% | 1009.8 hPa | - | 0 m/s | - | - |
| 1777961691 | 19.44° C | 69% | 1009.8 hPa | - | 0 m/s | - | - |
| 1777961228 | 18.89° C | 70% | 1009.9 hPa | - | 0 m/s | - | - |
| 1777960765 | 18.33° C | 72% | 1010 hPa | - | 0 m/s | - | - |
| 1777960149 | 17.78° C | 76% | 1009.9 hPa | - | 0 m/s | - | - |
| 1777959709 | 16.67° C | 76% | 1009.9 hPa | - | 0 m/s | - | - |
| 1777959269 | 16.67° C | 77% | 1009.8 hPa | - | 0 m/s | - | - |
| 1777958829 | 16.67° C | 78% | 1009.8 hPa | - | 0 m/s | - | - |
| 1777958390 | 17.22° C | 78% | 1009.8 hPa | - | 0 m/s | - | - |
| 1777957952 | 16.67° C | 78% | 1009.8 hPa | - | 0 m/s | - | - |
| 1777957514 | 16.67° C | 78% | 1010 hPa | - | 0 m/s | - | - |
| 1777957073 | 17.22° C | 78% | 1009.8 hPa | - | 0 m/s | - | - |
| 1777956635 | 16.67° C | 77% | 1009.8 hPa | - | 0 m/s | - | - |
| 1777956196 | 16.67° C | 78% | 1009.8 hPa | - | 0 m/s | - | - |
| 1777955758 | 16.67° C | 84% | 1009.8 hPa | - | 0 m/s | - | - |
| 1777955318 | 13.89° C | 90% | 1009.9 hPa | - | 0 m/s | - | - |
| 1777954879 | 13.33° C | 92% | 1010 hPa | - | 0 m/s | - | - |
| 1777954440 | 13.33° C | 92% | 1010 hPa | - | 0 m/s | - | - |
| 1777954002 | 12.78° C | 92% | 1010 hPa | - | 0 m/s | - | - |
| 1777953398 | 12.22° C | 92% | 1010 hPa | - | 0 m/s | - | - |
| 1777952960 | 12.22° C | 92% | 1010 hPa | - | 0 m/s | - | - |
* Rain since midnight (hover to see other rain measurements)
** Current wind speed in m/s (hover to see current wind gust speed)